DEORBITSAIL (40719 NORAD) Tracking and Keplerian Element Data

This shows tracking and keplerian element data for the satellite.

Feedback or suggestion? Click here.




ElementValue
Catalog40719
NameDEORBITSAIL
Epoch Orbit30857
Epoch Day91.19289028
Epoch Year2021
RAAN338.2342
Inclination97.8382
Eccentricity0.0016516
Argument of Perigee2.9418
Mean Anonmoly357.1886
Mean Motion14.7728984
Decay Rate5.54E-06
L11 40719U 15032E 21091.19289028 .00000554 00000-0 85088-4 0 9991
L22 40719 97.8382 338.2342 0016516 2.9418 357.1886 14.77289840308579



Live tracking and technical data element details for DEORBITSAIL (NORAD 40719). DEORBITSAIL can be tracked NOW for your location showing map with azimuth and elevation plus other details from your city location.







IsCatalogInMostPopularTable: catalog: 40719, numindb: 532
Update: records affected: 1



GetName: 40719 DEORBITSAIL

Hit Count: updated at: Thu, 23 Jan 2025 16:27:35 GMT